Regional Weather Roundup
Issued by NWS

Home | Current Version | Previous Version | Graphics & Text | Print | Product List | Glossary On
Versions: 1 2 3 4 5 6 7 8 9 10 11 12 13 14 15 16 17 18 19 20 21 22 23 24 25 26 27 28 29 30 31 32 33 34 35 36 37 38 39 40 41 42 43 44 45 46 47 48 49 50
000
ASUS44 KMEG 281110
RWRTN
TENNESSEE HOURLY STATE WEATHER ROUNDUP
NATIONAL WEATHER SERVICE MEMPHIS TN
600 AM CDT TUE JUL 28 2015

TNZ002-004-019-021-049-052-054-088>092-281200-
WEST TENNESSEE

CITY           SKY/WX    TMP DP  RH WIND       PRES   REMARKS
MEMPHIS INTL   PTCLDY    81  75  82 CALM      29.97R
NWS MEMPHIS      N/A     77 N/A N/A MISG        N/A
JACKSON        PTCLDY    76  73  91 CALM      29.98R FOG
DYERSBURG        N/A    N/A N/A N/A MISG        N/A
PARIS          CLEAR     72  70  94 CALM      29.98S
LEXINGTON      CLOUDY    73  73 100 CALM      29.97R VSB 1/4
$$

TNZ008-025-027-028-033-062-065-066-281200-
NORTH MIDDLE TENNESSEE

CITY           SKY/WX    TMP DP  RH WIND       PRES   REMARKS
NASHVILLE      MOCLDY    77  76  96 CALM      29.99R
CLARKSVILLE    PTCLDY    73  71  93 CALM      29.98R FOG
SMYRNA         PTCLDY    75  74  97 CALM      29.99R FOG
COOKEVILLE     CLEAR     72  72 100 CALM      30.01R
CROSSVILLE     PTCLDY    72  69  90 CALM      30.07R FOG
$$

TNZ061-075-076-078-094-096-097-281200-
SOUTH MIDDLE TENNESSEE

CITY           SKY/WX    TMP DP  RH WIND       PRES   REMARKS
FAYETTEVILLE   CLEAR     72  72 100 CALM      30.01R
TULLAHOMA      CLEAR     73  72  94 CALM      30.03R
WINCHESTER     CLEAR     73  72  94 CALM      30.02R
MCMINNVILLE    CLOUDY    73  73 100 CALM      30.02R VSB 1/4
COLUMBIA       CLEAR     75  75 100 CALM      29.99R
SHELBYVILLE    CLEAR     73  73 100 CALM      30.01S
$$

TNZ017-018-042-046-047-281200-
NORTHEAST TENNESSEE

CITY           SKY/WX    TMP DP  RH WIND       PRES   REMARKS
TRI CITIES     MOCLDY    71  70  96 N3        30.05R FOG
ELIZABETHTON   SUNNY     70  68  94 CALM      30.06R
$$

TNZ012-013-036-069-073-074-281200-
CENTRAL EAST TENNESSEE

CITY           SKY/WX    TMP DP  RH WIND       PRES   REMARKS
KNOXVILLE      CLOUDY    74  72  93 NE3       30.01R
OAK RIDGE      PTCLDY    74  71  91 CALM      30.03R
GATLINBURG     PTSUNNY   73  70  88 CALM      30.03R
MORRISTOWN     PTSUNNY   73  73 100 CALM      30.06R
$$

TNZ083-085-099-281200-
SOUTHEAST TENNESSEE

CITY           SKY/WX    TMP DP  RH WIND       PRES   REMARKS
CHATTANOOGA    MOCLDY    76  73  91 CALM      30.01R
$$

SKY/WX REPORTED AS FAIR MEANS FEW OR NO CLOUDS BELOW
12 THOUSAND FEET.



USA.gov is the U.S. government's official web portal to all federal, state and local government web resources and services.